Weather History for KBKB - March, 2014

Change the Weather History Date:

Sunday, March 2, 2014

  Actual Average (KPOE) Record (KPOE)
Temperature  
Mean Temperature 57 °F -  
Max Temperature 75 °F 63 °F 78 °F (1997)
Min Temperature 39 °F 44 °F 30 °F (2002)
Degree Days  
Heating Degree Days 8    
Growing Degree Days 7 (Base 50)    
Moisture  
Dew Point 58 °F    
Average Humidity 86    
Maximum Humidity 94    
Minimum Humidity 69    
Precipitation  
Precipitation 0.42 in - - ()
Sea Level Pressure  
Sea Level Pressure 30.04 in    
Wind  
Wind Speed 3 mph (NW)    
Max Wind Speed 10 mph    
Max Gust Speed 28 mph    
Visibility 8 miles    
Events Rain , Thunderstorm    
Averages and records for this station are not official NWS values.
T = Trace of Precipitation, MM = Missing Value Source: NWS Daily Summary

Daily Weather History Graph

Daily Weather History Graph

Search for Another Location

Airport or City:

Trip Planner

Search our weather history database for the weather conditions in past years. The results will help you decide how hot, cold, wet, or windy it might be!

Date:

Astronomy

Mar. 02, 2014 Rise Set
Actual Time 6:37 AM CST 6:10 PM CST
Civil Twilight 6:12 AM CST 6:35 PM CST
Nautical Twilight 5:44 AM CST 7:03 PM CST
Astronomical Twilight 5:16 AM CST 7:31 PM CST
Moon 7:16 AM CST (3/2) 7:57 PM CST (3/2)
Length of Visible Light 12h 22m
Length of Day
11h 33m
Waxing Crescent, 3% of the Moon is Illuminated
Mar 2
Waxing Crescent
Mar 8
First Quarter
Mar 16
Full
Mar 23
Last Quarter
Mar 30
New

Hourly Weather History & Observations

Time (CST) Temp. Windchill Dew Point Humidity Pressure Visibility Wind Dir Wind Speed Gust Speed Precip Events Conditions
12:54 AM 64.9 °F - 61.0 °F 87% 30.11 in 10.0 mi Calm Calm - N/A   Overcast
1:54 AM 64.9 °F - 61.0 °F 87% 30.10 in 10.0 mi Variable 3.5 mph - N/A   Overcast
2:54 AM 64.0 °F - 60.1 °F 87% 30.08 in 10.0 mi Calm Calm - N/A   Overcast
3:54 AM 64.0 °F - 60.1 °F 87% 30.08 in 10.0 mi Variable 4.6 mph - N/A   Overcast
4:49 AM 64.4 °F - 60.8 °F 88% 30.00 in 10.0 mi Variable 3.5 mph - N/A   Overcast
4:54 AM 64.0 °F - 60.1 °F 87% 30.08 in 10.0 mi Variable 3.5 mph - N/A   Overcast
5:03 AM 64.4 °F - 60.8 °F 88% 30.00 in 10.0 mi Variable 3.5 mph - N/A   Overcast
5:54 AM 64.9 °F - 61.0 °F 87% 30.09 in 10.0 mi Variable 3.5 mph - N/A   Overcast
6:54 AM 64.9 °F - 62.1 °F 90% 30.11 in 10.0 mi Variable 4.6 mph - N/A   Overcast
7:54 AM 66.0 °F - 63.0 °F 90% 30.13 in 10.0 mi Variable 3.5 mph - N/A   Overcast
8:54 AM 66.9 °F - 63.0 °F 87% 30.14 in 10.0 mi Calm Calm - N/A   Overcast
9:44 AM 66.2 °F - 64.4 °F 94% 30.06 in 7.0 mi Calm Calm - N/A   Overcast
9:54 AM 66.9 °F - 64.0 °F 90% 30.15 in 6.0 mi Calm Calm - N/A   Overcast
10:54 AM 66.9 °F - 64.9 °F 93% 30.14 in 3.0 mi Variable 3.5 mph - N/A   Overcast
11:16 AM 68.0 °F - 64.4 °F 88% 30.05 in 2.5 mi Calm Calm - N/A   Overcast
11:44 AM 68.0 °F - 66.2 °F 94% 30.03 in 3.0 mi Calm Calm - N/A   Overcast
11:54 AM 68.0 °F - 64.9 °F 90% 30.11 in 4.0 mi Variable 3.5 mph - N/A   Overcast
12:54 PM 69.1 °F - 64.9 °F 87% 30.08 in 10.0 mi Variable 3.5 mph - N/A   Overcast
1:42 PM 71.6 °F - 64.4 °F 78% 29.97 in 10.0 mi Variable 3.5 mph - N/A   Overcast
1:54 PM 71.1 °F - 64.9 °F 81% 30.04 in 9.0 mi Variable 3.5 mph - 0.00 in Rain Light Rain
2:54 PM 73.0 °F - 66.0 °F 79% 30.01 in 10.0 mi Variable 4.6 mph - 0.00 in   Overcast
3:26 PM 75.2 °F - 66.2 °F 73% 29.91 in 10.0 mi Variable 4.6 mph - N/A   Mostly Cloudy
3:54 PM 75.0 °F - 64.0 °F 69% 29.97 in 10.0 mi Variable 4.6 mph - N/A   Mostly Cloudy
4:54 PM 73.0 °F - 64.0 °F 73% 29.99 in 10.0 mi Variable 6.9 mph - N/A   Overcast
5:54 PM 71.1 °F - 64.0 °F 78% 29.99 in 10.0 mi Calm Calm - 0.00 in Rain Light Rain
6:20 PM 71.6 °F - 64.4 °F 78% 29.91 in 10.0 mi Variable 5.8 mph - 0.00 in   Overcast
6:54 PM 70.0 °F - 64.0 °F 81% 29.97 in 10.0 mi Variable 3.5 mph - 0.00 in   Mostly Cloudy
7:44 PM 69.8 °F - 64.4 °F 83% 29.88 in 10.0 mi Variable 4.6 mph - N/A   Mostly Cloudy
7:54 PM 71.1 °F - 64.9 °F 81% 29.96 in 10.0 mi Variable 5.8 mph - N/A   Overcast
8:23 PM 71.6 °F - 66.2 °F 83% 29.88 in 10.0 mi Variable 4.6 mph - N/A   Overcast
8:54 PM 54.0 °F - 50.0 °F 86% 30.01 in 6.0 mi NW 10.4 mph 26.5 mph 0.02 in Rain Rain
8:58 PM 51.8 °F - 48.2 °F 88% 29.94 in 3.0 mi West 8.1 mph 26.5 mph 0.02 in Rain , Thunderstorm Thunderstorms and Rain
9:11 PM 46.4 °F 41.9 °F 44.6 °F 93% 29.99 in 1.8 mi WNW 9.2 mph 27.6 mph 0.17 in Rain , Thunderstorm Heavy Thunderstorms and Rain
9:29 PM 44.6 °F 40.2 °F 41.0 °F 87% 30.01 in 3.0 mi NW 8.1 mph 17.3 mph 0.31 in Rain , Thunderstorm Light Thunderstorms and Rain
9:47 PM 42.8 °F 41.1 °F 39.2 °F 87% 30.02 in 10.0 mi Variable 3.5 mph - 0.31 in   Overcast
9:54 PM 41.0 °F 35.8 °F 37.9 °F 89% 30.10 in 10.0 mi NW 8.1 mph - 0.31 in   Overcast
10:54 PM 39.9 °F 35.8 °F 37.0 °F 89% 30.13 in 7.0 mi Variable 5.8 mph - 0.00 in   Overcast
11:13 PM 39.2 °F 37.0 °F 37.4 °F 93% 30.05 in 5.0 mi Variable 3.5 mph - 0.06 in Rain , Thunderstorm Light Thunderstorms and Rain
11:41 PM 39.2 °F 37.0 °F 35.6 °F 87% 30.04 in 10.0 mi Variable 3.5 mph 18.4 mph 0.09 in   Overcast
11:54 PM 39.0 °F 36.8 °F 36.0 °F 89% 30.14 in 10.0 mi Variable 3.5 mph - 0.09 in   Overcast